Grand Junction, CO

7:39 AM MST on December 12, 2017 (GMT -0700)
Walker

Weather History for KGJT - March, 2015

Change the Weather History Date:

Monday, March 23, 2015

  Actual Average Record
Temperature  
Mean Temperature 56 °F 46 °F  
Max Temperature 70 °F 59 °F 76 °F (2012)
Min Temperature 41 °F 33 °F 10 °F (1952)
Degree Days  
Heating Degree Days 9 19  
Month to date heating degree days 421 506  
Since 1 July heating degree days 4406 4885  
Cooling Degree Days 0 0  
Month to date cooling degree days 0 0  
Year to date cooling degree days 0 0  
Growing Degree Days 6 (Base 50)    
Moisture  
Dew Point 21 °F    
Average Humidity 28    
Maximum Humidity 44    
Minimum Humidity 11    
Precipitation  
Precipitation 0.04 in 0.04 in 0.80 in (1941)
Month to date precipitation 0.27 0.65  
Year to date precipitation 1.13 1.77  
Snow  
Snow 0.00 in 0.00 in 1.00 in (1936)
Month to date snowfall 1.9 1.9  
Since 1 July snowfall 10.5 17.4  
Snow Depth 0.00 in    
Sea Level Pressure  
Sea Level Pressure 29.85 in    
Wind  
Wind Speed 12 mph (SSW)    
Max Wind Speed 37 mph    
Max Gust Speed 47 mph    
Visibility 10 miles    
Events Rain    
T = Trace of Precipitation, MM = Missing Value Source: NWS Daily Summary

Daily Weather History Graph

Daily Weather History Graph

Search for Another Location

Airport or City:

Trip Planner

Search our weather history database for the weather conditions in past years. The results will help you decide how hot, cold, wet, or windy it might be!

Date:

Astronomy

Mar. 23, 2015 Rise Set
Actual Time 7:13 AM MDT 7:28 PM MDT
Civil Twilight 6:46 AM MDT 7:55 PM MDT
Nautical Twilight 6:15 AM MDT 8:26 PM MDT
Astronomical Twilight 5:43 AM MDT 8:58 PM MDT
Moon 9:27 AM MDT (3/23) 11:36 PM MDT (3/23)
Length of Visible Light 13h 09m
Length of Day
12h 15m
Waxing Crescent, 15% of the Moon is Illuminated
Mar 23
Waxing Crescent
Mar 27
First Quarter
Apr 4
Full
Apr 11
Last Quarter
Apr 18
New

Hourly Weather History & Observations

Time (MDT) Temp. Windchill Dew Point Humidity Pressure Visibility Wind Dir Wind Speed Gust Speed Precip Events Conditions
12:53 AM 53.1 °F - 17.1 °F 24% 29.87 in 10.0 mi ESE 12.7 mph - N/A   Clear
1:53 AM 53.1 °F - 18.0 °F 25% 29.86 in 10.0 mi ESE 12.7 mph - N/A   Clear
2:53 AM 53.1 °F - 18.0 °F 25% 29.84 in 10.0 mi ESE 13.8 mph - N/A   Clear
3:53 AM 50.0 °F - 19.0 °F 29% 29.83 in 10.0 mi East 12.7 mph - N/A   Clear
4:53 AM 48.9 °F - 19.0 °F 31% 29.84 in 10.0 mi ESE 11.5 mph - N/A   Clear
5:53 AM 48.9 °F - 19.9 °F 32% 29.85 in 10.0 mi ESE 9.2 mph - N/A   Clear
6:53 AM 48.0 °F - 19.9 °F 33% 29.87 in 10.0 mi ESE 10.4 mph - N/A   Clear
7:53 AM 48.2 °F - 21.2 °F 34% 30.00 in 10.0 mi ESE 9.2 mph - N/A   Partly Cloudy
8:53 AM 55.9 °F - 21.9 °F 27% 29.89 in 10.0 mi SE 6.9 mph - N/A   Clear
9:53 AM 60.1 °F - 19.9 °F 21% 29.88 in 10.0 mi South 9.2 mph - N/A   Partly Cloudy
10:53 AM 62.6 °F - 19.4 °F 19% 29.99 in 10.0 mi SSW 17.3 mph - N/A   Scattered Clouds
11:53 AM 62.1 °F - 19.0 °F 19% 29.85 in 10.0 mi WNW 8.1 mph - N/A   Scattered Clouds
12:53 PM 61.0 °F - 18.0 °F 19% 29.83 in 10.0 mi Variable 4.6 mph - N/A   Scattered Clouds
1:53 PM 66.9 °F - 16.0 °F 14% 29.77 in 10.0 mi West 20.7 mph 27.6 mph N/A   Partly Cloudy
2:53 PM 69.1 °F - 15.1 °F 13% 29.74 in 10.0 mi WSW 20.7 mph 28.8 mph N/A   Mostly Cloudy
3:53 PM 69.1 °F - 14.0 °F 12% 29.72 in 10.0 mi West 17.3 mph 33.4 mph N/A   Scattered Clouds
4:53 PM 66.9 °F - 15.1 °F 14% 29.73 in 10.0 mi West 21.9 mph 39.1 mph N/A   Mostly Cloudy
5:01 PM 64.0 °F - 18.0 °F 17% 29.86 in 8.0 mi WSW 27.6 mph 43.7 mph N/A   Squalls
5:11 PM 64.9 °F - 18.0 °F 16% 29.87 in 10.0 mi WSW 24.2 mph 34.5 mph N/A   Partly Cloudy
5:53 PM 62.1 °F - 18.0 °F 18% 29.75 in 10.0 mi West 16.1 mph 24.2 mph N/A   Clear
6:53 PM 59.0 °F - 21.9 °F 24% 29.78 in 10.0 mi NNW 16.1 mph 21.9 mph N/A   Overcast
7:53 PM 57.0 °F - 25.0 °F 29% 29.78 in 10.0 mi NW 8.1 mph 27.6 mph 0.00 in   Mostly Cloudy
8:53 PM 53.6 °F - 26.6 °F 35% 29.91 in 10.0 mi NE 11.5 mph - N/A   Mostly Cloudy
9:53 PM 51.1 °F - 28.9 °F 43% 29.84 in 10.0 mi WSW 4.6 mph - N/A   Overcast
10:53 PM 52.0 °F - 30.0 °F 43% 29.86 in 10.0 mi SSE 6.9 mph - N/A   Overcast
11:30 PM 44.1 °F 34.6 °F 36.0 °F 73% 30.06 in 8.0 mi NW 26.5 mph 44.9 mph 0.00 in Rain Light Rain
11:53 PM 42.1 °F 34.2 °F 37.9 °F 85% 29.99 in 5.0 mi NW 16.1 mph 33.4 mph 0.03 in Rain Light Rain